| time (UTC) | temp F | wind direction | speed knots | gust knots | rain 1hr in | rain 24hr in | rain mn in | humidity % | barometer mb |
| 20260509124010 | 57 | 331 | 0.0 | 0.0 | 0.00 | 0.00 | 0.00 | 60 | |
| 20260509123508 | 57 | 332 | 0.0 | 0.0 | 0.00 | 0.00 | 0.00 | 60 | |
| 20260509123004 | 58 | 332 | 0.0 | 0.0 | 0.00 | 0.00 | 0.00 | 59 | |
| 20260509122500 | 59 | 301 | 0.0 | 0.0 | 0.00 | 0.00 | 0.00 | 58 | |
| 20260509121957 | 59 | 299 | 0.0 | 0.9 | 0.00 | 0.00 | 0.00 | 55 | |
| 20260509121453 | 59 | 193 | 1.7 | 2.6 | 0.00 | 0.00 | 0.00 | 56 | |
| 20260509120952 | 58 | 348 | 0.0 | 0.9 | 0.00 | 0.00 | 0.00 | 58 | |
| 20260509120449 | 59 | 330 | 0.0 | 0.0 | 0.00 | 0.00 | 0.00 | 58 | |
| 20260509115947 | 59 | 17 | 0.0 | 1.7 | 0.00 | 0.00 | 0.00 | 58 | |
| 20260509115444 | 59 | 331 | 0.0 | 1.7 | 0.00 | 0.00 | 0.00 | 58 | |
| 20260509114942 | 60 | 313 | 0.0 | 0.9 | 0.00 | 0.00 | 0.00 | 56 | |
| 20260509114440 | 60 | 87 | 0.9 | 0.9 | 0.00 | 0.00 | 0.00 | 56 | |
| 20260509113939 | 60 | 53 | 0.9 | 0.9 | 0.00 | 0.00 | 0.00 | 55 | |
| 20260509113436 | 60 | 169 | 0.0 | 0.9 | 0.00 | 0.00 | 0.00 | 56 | |
| 20260509112933 | 60 | 352 | 0.0 | 0.9 | 0.00 | 0.00 | 0.00 | 56 | |
| 20260509112430 | 60 | 330 | 0.0 | 0.0 | 0.00 | 0.00 | 0.00 | 56 | |
| 20260509111927 | 60 | 354 | 0.0 | 0.0 | 0.00 | 0.00 | 0.00 | 56 | |
| 20260509111424 | 60 | 354 | 0.0 | 0.9 | 0.00 | 0.00 | 0.00 | 56 | |
| 20260509110922 | 60 | 347 | 0.0 | 0.9 | 0.00 | 0.00 | 0.00 | 56 | |
| 20260509110417 | 61 | 351 | 0.0 | 0.9 | 0.00 | 0.00 | 0.00 | 56 | |
| 20260509105916 | 61 | 265 | 0.9 | 1.7 | 0.00 | 0.00 | 0.00 | 55 | |
| 20260509105414 | 61 | 284 | 0.0 | 0.9 | 0.00 | 0.00 | 0.00 | 55 | |
| 20260509104910 | 62 | 269 | 0.0 | 0.0 | 0.00 | 0.00 | 0.00 | 55 | |
| 20260509104407 | 62 | 277 | 0.0 | 0.9 | 0.00 | 0.00 | 0.00 | 54 | |
| 20260509103905 | 62 | 194 | 1.7 | 2.6 | 0.00 | 0.00 | 0.00 | 54 | |
| 20260509103402 | 62 | 256 | 0.0 | 0.9 | 0.00 | 0.00 | 0.00 | 54 | |
| 20260509102900 | 62 | 294 | 0.0 | 0.0 | 0.00 | 0.00 | 0.00 | 55 | |
| 20260509102358 | 62 | 275 | 0.0 | 0.9 | 0.00 | 0.00 | 0.00 | 53 | |
| 20260509101853 | 63 | 287 | 0.0 | 0.0 | 0.00 | 0.00 | 0.00 | 52 | |
| 20260509101349 | 63 | 297 | 0.0 | 1.7 | 0.00 | 0.00 | 0.00 | 50 | |
| 20260509100847 | 64 | 224 | 2.6 | 2.6 | 0.00 | 0.00 | 0.00 | 49 | |
| 20260509100344 | 63 | 189 | 2.6 | 3.5 | 0.00 | 0.00 | 0.00 | 51 | |
| 20260509095841 | 64 | 280 | 0.9 | 1.7 | 0.00 | 0.00 | 0.00 | 51 | |
| 20260509095338 | 64 | 237 | 0.0 | 0.9 | 0.00 | 0.00 | 0.00 | 50 | |
| 20260509094835 | 64 | 329 | 0.0 | 0.9 | 0.00 | 0.00 | 0.00 | 49 | |
| 20260509094332 | 64 | 331 | 0.0 | 0.9 | 0.00 | 0.00 | 0.00 | 49 | |
| 20260509093830 | 64 | 182 | 0.9 | 1.7 | 0.00 | 0.00 | 0.00 | 50 | |
| 20260509093326 | 65 | 184 | 0.9 | 0.9 | 0.00 | 0.00 | 0.00 | 49 | |
| 20260509092825 | 65 | 7 | 0.0 | 1.7 | 0.00 | 0.00 | 0.00 | 49 | |
| 20260509092323 | 65 | 354 | 0.0 | 0.9 | 0.00 | 0.00 | 0.00 | 48 | |
| 20260509091820 | 65 | 138 | 0.0 | 0.9 | 0.00 | 0.00 | 0.00 | 46 | |
| 20260509091317 | 66 | 313 | 0.9 | 1.7 | 0.00 | 0.00 | 0.00 | 45 | |
| 20260509090814 | 66 | 279 | 0.9 | 0.9 | 0.00 | 0.00 | 0.00 | 45 | |
| 20260509090311 | 66 | 18 | 0.0 | 1.7 | 0.00 | 0.00 | 0.00 | 44 | |
| 20260509085809 | 66 | 337 | 0.9 | 0.9 | 0.00 | 0.00 | 0.00 | 44 | |
| 20260509085307 | 67 | 272 | 0.0 | 0.9 | 0.00 | 0.00 | 0.00 | 44 | |
| 20260509084802 | 67 | 339 | 0.0 | 1.7 | 0.00 | 0.00 | 0.00 | 44 | |
| 20260509084259 | 67 | 309 | 0.9 | 1.7 | 0.00 | 0.00 | 0.00 | 44 | |
| 20260509083757 | 68 | 152 | 0.0 | 1.7 | 0.00 | 0.00 | 0.00 | 43 | |
| 20260509083253 | 68 | 346 | 0.0 | 0.9 | 0.00 | 0.00 | 0.00 | 41 | |
| 20260509082750 | 69 | 329 | 1.7 | 2.6 | 0.00 | 0.00 | 0.00 | 41 | |
| 20260509082247 | 69 | 331 | 0.0 | 1.7 | 0.00 | 0.00 | 0.00 | 42 | |
| 20260509081744 | 69 | 177 | 0.9 | 2.6 | 0.00 | 0.00 | 0.00 | 41 | |
| 20260509081241 | 70 | 343 | 0.9 | 2.6 | 0.00 | 0.00 | 0.00 | 39 | |
| 20260509080740 | 70 | 334 | 0.9 | 1.7 | 0.00 | 0.00 | 0.00 | 37 | |
| 20260509080237 | 70 | 73 | 0.9 | 2.6 | 0.00 | 0.00 | 0.00 | 37 | |
| 20260509075735 | 70 | 187 | 1.7 | 1.7 | 0.00 | 0.00 | 0.00 | 39 | |
| 20260509075232 | 71 | 109 | 1.7 | 7.8 | 0.00 | 0.00 | 0.00 | 38 | |
| 20260509074729 | 71 | 195 | 2.6 | 3.5 | 0.00 | 0.00 | 0.00 | 39 | |
| 20260509074227 | 71 | 27 | 0.9 | 3.5 | 0.00 | 0.00 | 0.00 | 38 | |
| 20260509073722 | 71 | 85 | 1.7 | 2.6 | 0.00 | 0.00 | 0.00 | 36 | |
| 20260509073219 | 71 | 255 | 1.7 | 3.5 | 0.00 | 0.00 | 0.00 | 37 | |
| 20260509072715 | 72 | 177 | 2.6 | 2.6 | 0.00 | 0.00 | 0.00 | 37 | |
| 20260509072213 | 72 | 178 | 2.6 | 5.2 | 0.00 | 0.00 | 0.00 | 35 | |
| 20260509071709 | 72 | 122 | 3.5 | 3.5 | 0.00 | 0.00 | 0.00 | 34 | |
| 20260509071207 | 72 | 38 | 0.9 | 3.5 | 0.00 | 0.00 | 0.00 | 35 | |
| 20260509070703 | 72 | 127 | 0.9 | 2.6 | 0.00 | 0.00 | 0.00 | 34 | |
| 20260509070200 | 72 | 31 | 0.9 | 2.6 | 0.00 | 0.00 | 0.00 | 32 | |
| 20260509065656 | 72 | 72 | 0.9 | 5.2 | 0.00 | 0.00 | 0.00 | 33 | |
| 20260509065152 | 72 | 18 | 1.7 | 3.5 | 0.00 | 0.00 | 0.00 | 35 | |
| 20260509064649 | 72 | 140 | 1.7 | 3.5 | 0.00 | 0.00 | 0.00 | 33 | |
| 20260509064147 | 72 | 249 | 0.9 | 7.8 | 0.00 | 0.00 | 0.00 | 35 | |
| 20260509063644 | 73 | 163 | 2.6 | 5.2 | 0.00 | 0.00 | 0.00 | 34 | |
| 20260509063140 | 73 | 233 | 1.7 | 5.2 | 0.00 | 0.00 | 0.00 | 31 | |
| 20260509062637 | 73 | 150 | 1.7 | 3.5 | 0.00 | 0.00 | 0.00 | 32 | |
| 20260509062134 | 73 | 142 | 0.9 | 1.7 | 0.00 | 0.00 | 0.00 | 33 | |
| 20260509061631 | 73 | 338 | 2.6 | 3.5 | 0.00 | 0.00 | 0.00 | 35 | |
| 20260509061129 | 73 | 239 | 0.9 | 2.6 | 0.00 | 0.00 | 0.00 | 35 | |
| 20260509060626 | 73 | 313 | 0.9 | 1.7 | 0.00 | 0.00 | 0.00 | 34 | |
| 20260509060121 | 74 | 169 | 3.5 | 7.0 | 0.00 | 0.00 | 0.00 | 32 | |
| 20260509055617 | 74 | 338 | 1.7 | 2.6 | 0.00 | 0.00 | 0.00 | 34 | |
| 20260509055113 | 73 | 128 | 2.6 | 6.1 | 0.00 | 0.00 | 0.00 | 33 | |
| 20260509054610 | 74 | 303 | 0.0 | 2.6 | 0.00 | 0.00 | 0.00 | 34 | |
| 20260509054108 | 73 | 167 | 3.5 | 7.0 | 0.00 | 0.00 | 0.00 | 34 | |
| 20260509053607 | 74 | 330 | 0.9 | 6.1 | 0.00 | 0.00 | 0.00 | 34 | |
| 20260509053103 | 74 | 337 | 0.9 | 2.6 | 0.00 | 0.00 | 0.00 | 34 | |
| 20260509052601 | 75 | 177 | 0.9 | 1.7 | 0.00 | 0.00 | 0.00 | 34 | |
| 20260509052059 | 74 | 283 | 1.7 | 3.5 | 0.00 | 0.00 | 0.00 | 34 | |
| 20260509051556 | 74 | 55 | 0.9 | 5.2 | 0.00 | 0.00 | 0.00 | 36 | |
| 20260509051053 | 74 | 313 | 1.7 | 2.6 | 0.00 | 0.00 | 0.00 | 36 | |
| 20260509050550 | 74 | 261 | 1.7 | 2.6 | 0.00 | 0.00 | 0.00 | 33 | |
| 20260509050046 | 74 | 238 | 0.9 | 3.5 | 0.00 | 0.00 | 0.00 | 37 | |
| 20260509045544 | 74 | 73 | 0.9 | 2.6 | 0.00 | 0.00 | 0.00 | 37 | |
| 20260509045041 | 73 | 315 | 0.9 | 5.2 | 0.00 | 0.00 | 0.00 | 37 | |
| 20260509044538 | 73 | 132 | 1.7 | 7.8 | 0.00 | 0.00 | 0.00 | 36 | |
| 20260509044035 | 74 | 327 | 0.9 | 1.7 | 0.00 | 0.00 | 0.00 | 36 | |
| 20260509043532 | 74 | 8 | 0.9 | 5.2 | 0.00 | 0.00 | 0.00 | 37 | |
| 20260509043027 | 74 | 109 | 1.7 | 5.2 | 0.00 | 0.00 | 0.00 | 35 | |
| 20260509042524 | 74 | 220 | 0.9 | 5.2 | 0.00 | 0.00 | 0.00 | 36 | |
| 20260509042020 | 73 | 16 | 0.9 | 3.5 | 0.00 | 0.00 | 0.00 | 37 | |
| 20260509041517 | 73 | 15 | 0.9 | 3.5 | 0.00 | 0.00 | 0.00 | 37 | |
| 20260509041015 | 73 | 354 | 1.7 | 3.5 | 0.00 | 0.00 | 0.00 | 38 | |
| 20260509040513 | 73 | 333 | 1.7 | 3.5 | 0.00 | 0.00 | 0.00 | 38 | |
| 20260509040009 | 73 | 18 | 1.7 | 5.2 | 0.00 | 0.00 | 0.00 | 38 | |
| 20260509035506 | 73 | 120 | 1.7 | 3.5 | 0.00 | 0.00 | 0.00 | 38 | |
| 20260509035003 | 74 | 300 | 1.7 | 3.5 | 0.00 | 0.00 | 0.00 | 37 | |
| 20260509034501 | 74 | 275 | 0.9 | 1.7 | 0.00 | 0.00 | 0.00 | 40 | |
| 20260509033957 | 73 | 357 | 1.7 | 3.5 | 0.00 | 0.00 | 0.00 | 41 | |
| 20260509033454 | 73 | 234 | 1.7 | 2.6 | 0.00 | 0.00 | 0.00 | 39 | |
| 20260509032951 | 74 | 334 | 0.9 | 3.5 | 0.00 | 0.00 | 0.00 | 38 | |
| 20260509032448 | 73 | 225 | 1.7 | 2.6 | 0.00 | 0.00 | 0.00 | 41 | |
| 20260509031946 | 72 | 306 | 2.6 | 3.5 | 0.00 | 0.00 | 0.00 | 41 | |
| 20260509031443 | 72 | 291 | 1.7 | 6.1 | 0.00 | 0.00 | 0.00 | 40 | |
| 20260509030940 | 73 | 13 | 1.7 | 5.2 | 0.00 | 0.00 | 0.00 | 40 | |
| 20260509030438 | 72 | 314 | 1.7 | 7.0 | 0.00 | 0.00 | 0.00 | 41 | |
| 20260509025935 | 72 | 202 | 2.6 | 5.2 | 0.00 | 0.00 | 0.00 | 42 | |
| 20260509025431 | 72 | 222 | 1.7 | 3.5 | 0.00 | 0.00 | 0.00 | 40 | |
| 20260509024926 | 72 | 330 | 0.9 | 5.2 | 0.00 | 0.00 | 0.00 | 41 | |
| 20260509024422 | 72 | 117 | 0.9 | 5.2 | 0.00 | 0.00 | 0.00 | 41 | |
| 20260509023919 | 72 | 272 | 1.7 | 9.6 | 0.00 | 0.00 | 0.00 | 41 | |
| 20260509023417 | 71 | 275 | 0.9 | 3.5 | 0.00 | 0.00 | 0.00 | 43 | |
| 20260509022913 | 71 | 44 | 1.7 | 6.1 | 0.00 | 0.00 | 0.00 | 42 | |
| 20260509022411 | 71 | 336 | 1.7 | 7.0 | 0.00 | 0.00 | 0.00 | 41 | |
| 20260509021908 | 70 | 281 | 1.7 | 5.2 | 0.00 | 0.00 | 0.00 | 43 | |
| 20260509021405 | 71 | 212 | 3.5 | 7.0 | 0.00 | 0.00 | 0.00 | 42 | |
| 20260509020902 | 71 | 210 | 1.7 | 3.5 | 0.00 | 0.00 | 0.00 | 42 | |
| 20260509020400 | 71 | 310 | 1.7 | 5.2 | 0.00 | 0.00 | 0.00 | 44 | |
| 20260509015857 | 70 | 334 | 1.7 | 2.6 | 0.00 | 0.00 | 0.00 | 45 | |
| 20260509015355 | 71 | 328 | 2.6 | 5.2 | 0.00 | 0.00 | 0.00 | 44 | |
| 20260509014852 | 70 | 304 | 0.0 | 3.5 | 0.00 | 0.00 | 0.00 | 45 | |
| 20260509014349 | 71 | 141 | 0.9 | 7.0 | 0.00 | 0.00 | 0.00 | 47 | |
| 20260509013845 | 70 | 320 | 1.7 | 3.5 | 0.00 | 0.00 | 0.00 | 46 | |
| 20260509013342 | 69 | 315 | 3.5 | 3.5 | 0.00 | 0.00 | 0.00 | 47 | |
| 20260509012838 | 70 | 191 | 2.6 | 6.1 | 0.00 | 0.00 | 0.00 | 46 | |
| 20260509012334 | 69 | 157 | 1.7 | 5.2 | 0.00 | 0.00 | 0.00 | 47 | |
| 20260509011832 | 68 | 337 | 1.7 | 2.6 | 0.00 | 0.00 | 0.00 | 48 | |
| 20260509011329 | 68 | 125 | 3.5 | 9.6 | 0.00 | 0.00 | 0.00 | 48 | |
| 20260509010827 | 67 | 289 | 3.5 | 6.1 | 0.00 | 0.00 | 0.00 | 48 | |
| 20260509010324 | 67 | 220 | 2.6 | 3.5 | 0.00 | 0.00 | 0.00 | 51 | |
| 20260509005821 | 67 | 271 | 3.5 | 7.0 | 0.00 | 0.00 | 0.00 | 50 | |
| 20260509005319 | 66 | 257 | 1.7 | 6.1 | 0.00 | 0.00 | 0.00 | 51 | |
| 20260509004819 | 66 | 236 | 1.7 | 6.1 | 0.00 | 0.00 | 0.00 | 51 | |
| 20260509004316 | 65 | 177 | 4.3 | 7.0 | 0.00 | 0.00 | 0.00 | 52 | |
| 20260509003814 | 64 | 199 | 5.2 | 7.0 | 0.00 | 0.00 | 0.00 | 53 | |
| 20260509003312 | 64 | 203 | 1.7 | 6.1 | 0.00 | 0.00 | 0.00 | 54 | |
| 20260509002809 | 65 | 259 | 3.5 | 5.2 | 0.00 | 0.00 | 0.00 | 52 | |
| 20260509002306 | 65 | 337 | 1.7 | 5.2 | 0.00 | 0.00 | 0.00 | 52 | |
| 20260509001803 | 64 | 196 | 2.6 | 6.1 | 0.00 | 0.00 | 0.00 | 54 | |
| 20260509001259 | 64 | 205 | 0.9 | 3.5 | 0.00 | 0.00 | 0.00 | 53 | |
| 20260509000757 | 64 | 156 | 0.9 | 6.1 | 0.00 | 0.00 | 0.00 | 53 | |
| 20260509000256 | 64 | 262 | 1.7 | 3.5 | 0.00 | 0.00 | 0.00 | 53 | |
| 20260508235751 | 64 | 263 | 4.3 | 6.1 | 0.00 | 0.00 | 0.00 | 52 | |
| 20260508235247 | 63 | 187 | 1.7 | 7.0 | 0.00 | 0.00 | 0.00 | 54 | |
| 20260508234745 | 63 | 184 | 2.6 | 6.1 | 0.00 | 0.00 | 0.00 | 55 | |
| 20260508234241 | 63 | 241 | 3.5 | 7.0 | 0.00 | 0.00 | 0.00 | 54 | |
| 20260508233740 | 64 | 320 | 3.5 | 3.5 | 0.00 | 0.00 | 0.00 | 53 | |
| 20260508233238 | 62 | 251 | 1.7 | 2.6 | 0.00 | 0.00 | 0.00 | 56 | |
| 20260508232736 | 62 | 320 | 1.7 | 6.1 | 0.00 | 0.00 | 0.00 | 56 | |
| 20260508232232 | 62 | 177 | 1.7 | 7.0 | 0.00 | 0.00 | 0.00 | 56 | |
| 20260508231730 | 62 | 327 | 1.7 | 3.5 | 0.00 | 0.00 | 0.00 | 57 | |
| 20260508231226 | 62 | 293 | 1.7 | 5.2 | 0.00 | 0.00 | 0.00 | 57 | |
| 20260508230723 | 62 | 315 | 0.9 | 1.7 | 0.00 | 0.00 | 0.00 | 58 | |
| 20260508230219 | 62 | 291 | 1.7 | 2.6 | 0.00 | 0.00 | 0.00 | 58 | |
| 20260508225718 | 61 | 167 | 2.6 | 3.5 | 0.00 | 0.00 | 0.00 | 58 | |
| 20260508225214 | 60 | 341 | 0.9 | 5.2 | 0.00 | 0.00 | 0.00 | 58 | |
| 20260508224712 | 60 | 158 | 3.5 | 7.0 | 0.00 | 0.00 | 0.00 | 58 | |
| 20260508224209 | 60 | 218 | 1.7 | 8.7 | 0.00 | 0.00 | 0.00 | 58 | |
| 20260508223706 | 60 | 99 | 0.9 | 2.6 | 0.00 | 0.00 | 0.00 | 60 | |
| 20260508223204 | 60 | 329 | 1.7 | 6.1 | 0.00 | 0.00 | 0.00 | 60 | |
| 20260508222701 | 60 | 246 | 2.6 | 3.5 | 0.00 | 0.00 | 0.00 | 61 | |
| 20260508222158 | 59 | 217 | 2.6 | 5.2 | 0.00 | 0.00 | 0.00 | 60 | |
| 20260508221654 | 59 | 255 | 1.7 | 2.6 | 0.00 | 0.00 | 0.00 | 61 | |
| 20260508221150 | 59 | 14 | 0.9 | 2.6 | 0.00 | 0.00 | 0.00 | 61 | |
| 20260508220647 | 59 | 159 | 1.7 | 5.2 | 0.00 | 0.00 | 0.00 | 61 | |
| 20260508220143 | 58 | 295 | 1.7 | 3.5 | 0.00 | 0.00 | 0.00 | 61 | |
| 20260508215640 | 58 | 265 | 3.5 | 6.1 | 0.00 | 0.00 | 0.00 | 61 | |
| 20260508215137 | 59 | 180 | 4.3 | 6.1 | 0.00 | 0.00 | 0.00 | 61 | |
| 20260508214633 | 59 | 227 | 3.5 | 7.0 | 0.00 | 0.00 | 0.00 | 60 | |
| 20260508214131 | 60 | 293 | 1.7 | 6.1 | 0.00 | 0.00 | 0.00 | 60 | |
| 20260508213627 | 60 | 331 | 0.9 | 6.1 | 0.00 | 0.00 | 0.00 | 59 | |
| 20260508213123 | 59 | 245 | 3.5 | 5.2 | 0.00 | 0.00 | 0.00 | 61 | |
| 20260508212620 | 58 | 258 | 0.9 | 3.5 | 0.00 | 0.00 | 0.00 | 62 | |
| 20260508212117 | 58 | 258 | 1.7 | 2.6 | 0.00 | 0.00 | 0.00 | 61 | |
| 20260508211612 | 58 | 300 | 0.9 | 6.1 | 0.00 | 0.00 | 0.00 | 62 | |
| 20260508211109 | 57 | 91 | 0.0 | 5.2 | 0.00 | 0.00 | 0.00 | 62 | |
| 20260508210605 | 57 | 220 | 2.6 | 5.2 | 0.00 | 0.00 | 0.00 | 63 | |
| 20260508205600 | 57 | 172 | 3.5 | 3.5 | 0.00 | 0.00 | 0.00 | 62 | |
| 20260508205056 | 57 | 273 | 2.6 | 7.0 | 0.00 | 0.00 | 0.00 | 61 | |
| 20260508204552 | 57 | 222 | 1.7 | 3.5 | 0.00 | 0.00 | 0.00 | 62 | |
| 20260508204048 | 57 | 143 | 0.9 | 7.0 | 0.00 | 0.00 | 0.00 | 62 | |
| 20260508203545 | 57 | 306 | 1.7 | 2.6 | 0.00 | 0.00 | 0.00 | 61 | |
| 20260508203041 | 57 | 215 | 2.6 | 3.5 | 0.00 | 0.00 | 0.00 | 62 | |
| 20260508202538 | 57 | 262 | 1.7 | 5.2 | 0.00 | 0.00 | 0.00 | 62 | |
| 20260508202035 | 57 | 137 | 1.7 | 6.1 | 0.00 | 0.00 | 0.00 | 63 | |
| 20260508201531 | 57 | 316 | 0.0 | 3.5 | 0.00 | 0.00 | 0.00 | 63 | |
| 20260508201028 | 57 | 271 | 0.9 | 2.6 | 0.00 | 0.00 | 0.00 | 62 | |
| 20260508200525 | 57 | 319 | 0.0 | 0.9 | 0.00 | 0.00 | 0.00 | 61 | |
| 20260508200021 | 57 | 239 | 0.9 | 1.7 | 0.00 | 0.00 | 0.00 | 62 | |
| 20260508195518 | 57 | 250 | 1.7 | 2.6 | 0.00 | 0.00 | 0.00 | 61 | |
| 20260508195014 | 57 | 154 | 0.9 | 1.7 | 0.00 | 0.00 | 0.00 | 61 | |
| 20260508194511 | 57 | 259 | 0.9 | 1.7 | 0.00 | 0.00 | 0.00 | 61 | |
| 20260508194008 | 57 | 180 | 2.6 | 6.1 | 0.00 | 0.00 | 0.00 | 60 | |
| 20260508193504 | 57 | 318 | 0.9 | 3.5 | 0.00 | 0.00 | 0.00 | 59 | |
| 20260508193001 | 57 | 296 | 1.7 | 3.5 | 0.00 | 0.00 | 0.00 | 59 | |
| 20260508192458 | 57 | 313 | 0.9 | 7.8 | 0.00 | 0.00 | 0.00 | 59 | |
| 20260508191955 | 58 | 299 | 0.9 | 3.5 | 0.00 | 0.00 | 0.00 | 59 | |
| 20260508191452 | 58 | 223 | 2.6 | 7.0 | 0.00 | 0.00 | 0.00 | 58 | |
| 20260508190949 | 58 | 236 | 1.7 | 5.2 | 0.00 | 0.00 | 0.00 | 58 | |
| 20260508190446 | 58 | 268 | 2.6 | 5.2 | 0.00 | 0.00 | 0.00 | 57 | |
| 20260508185942 | 58 | 292 | 6.1 | 9.6 | 0.00 | 0.00 | 0.00 | 58 | |
| 20260508185440 | 58 | 297 | 1.7 | 3.5 | 0.00 | 0.00 | 0.00 | 57 | |
| 20260508184937 | 57 | 168 | 7.0 | 8.7 | 0.00 | 0.00 | 0.00 | 56 | |
| 20260508184434 | 58 | 243 | 0.9 | 1.7 | 0.00 | 0.00 | 0.00 | 57 | |
| 20260508183931 | 58 | 186 | 0.9 | 1.7 | 0.00 | 0.00 | 0.00 | 57 | |
| 20260508183427 | 58 | 303 | 0.9 | 2.6 | 0.00 | 0.00 | 0.00 | 57 | |
| 20260508182922 | 58 | 236 | 0.9 | 1.7 | 0.00 | 0.00 | 0.00 | 58 | |
| 20260508182421 | 58 | 283 | 0.0 | 3.5 | 0.00 | 0.00 | 0.00 | 58 | |
| 20260508181920 | 57 | 279 | 0.9 | 2.6 | 0.00 | 0.00 | 0.00 | 58 | |
| 20260508181418 | 57 | 260 | 1.7 | 3.5 | 0.00 | 0.00 | 0.00 | 60 | |
| 20260508180915 | 57 | 228 | 1.7 | 2.6 | 0.00 | 0.00 | 0.00 | 61 | |
| 20260508180412 | 57 | 233 | 1.7 | 1.7 | 0.00 | 0.00 | 0.00 | 62 | |
| 20260508175908 | 57 | 275 | 0.9 | 1.7 | 0.00 | 0.00 | 0.00 | 60 | |
| 20260508175404 | 57 | 237 | 1.7 | 2.6 | 0.00 | 0.00 | 0.00 | 61 | |
| 20260508174903 | 57 | 194 | 0.9 | 2.6 | 0.00 | 0.00 | 0.00 | 62 | |
| 20260508174400 | 57 | 198 | 0.9 | 1.7 | 0.00 | 0.00 | 0.00 | 62 | |
| 20260508173856 | 56 | 218 | 0.9 | 2.6 | 0.00 | 0.00 | 0.00 | 63 | |
| 20260508173353 | 56 | 273 | 0.0 | 0.9 | 0.00 | 0.00 | 0.00 | 65 | |
| 20260508172849 | 56 | 194 | 0.9 | 2.6 | 0.00 | 0.00 | 0.00 | 63 | |
| 20260508172347 | 57 | 233 | 0.0 | 0.9 | 0.00 | 0.00 | 0.00 | 63 | |
| 20260508171842 | 57 | 266 | 0.0 | 0.9 | 0.00 | 0.00 | 0.00 | 62 | |
| 20260508171339 | 56 | 170 | 0.0 | 1.7 | 0.00 | 0.00 | 0.00 | 62 | |
| 20260508170836 | 56 | 223 | 0.9 | 0.9 | 0.00 | 0.00 | 0.00 | 65 | |
| 20260508170334 | 55 | 201 | 0.0 | 1.7 | 0.00 | 0.00 | 0.00 | 66 | |
| 20260508165830 | 55 | 270 | 0.0 | 0.9 | 0.00 | 0.00 | 0.00 | 66 | |
| 20260508165328 | 56 | 267 | 0.0 | 0.0 | 0.00 | 0.00 | 0.00 | 65 | |
| 20260508164823 | 56 | 259 | 0.9 | 1.7 | 0.00 | 0.00 | 0.00 | 64 | |
| 20260508164320 | 56 | 268 | 0.0 | 2.6 | 0.00 | 0.00 | 0.00 | 65 | |
| 20260508163819 | 57 | 212 | 1.7 | 2.6 | 0.00 | 0.00 | 0.00 | 61 | |
| 20260508163316 | 56 | 228 | 0.0 | 1.7 | 0.00 | 0.00 | 0.00 | 61 | |
| 20260508162811 | 57 | 228 | 0.0 | 0.9 | 0.00 | 0.00 | 0.00 | 63 | |
| 20260508162308 | 57 | 226 | 0.9 | 1.7 | 0.00 | 0.00 | 0.00 | 62 | |
| 20260508161806 | 57 | 198 | 1.7 | 2.6 | 0.00 | 0.00 | 0.00 | 62 | |
| 20260508161303 | 56 | 247 | 0.0 | 1.7 | 0.00 | 0.00 | 0.00 | 63 | |
| 20260508160800 | 56 | 248 | 1.7 | 2.6 | 0.00 | 0.00 | 0.00 | 65 | |
| 20260508160259 | 56 | 227 | 0.9 | 1.7 | 0.00 | 0.00 | 0.00 | 67 | |
| 20260508155755 | 56 | 278 | 0.0 | 2.6 | 0.00 | 0.00 | 0.00 | 69 | |
| 20260508155252 | 55 | 271 | 0.9 | 1.7 | 0.00 | 0.00 | 0.00 | 70 | |
| 20260508154748 | 55 | 279 | 0.9 | 1.7 | 0.00 | 0.00 | 0.00 | 72 | |
| 20260508154246 | 55 | 282 | 0.0 | 2.6 | 0.00 | 0.00 | 0.00 | 72 | |
| 20260508153742 | 55 | 281 | 0.0 | 0.0 | 0.00 | 0.00 | 0.00 | 75 | |
| 20260508153240 | 56 | 280 | 0.0 | 0.0 | 0.00 | 0.00 | 0.00 | 74 | |
| 20260508152736 | 55 | 283 | 0.0 | 2.6 | 0.00 | 0.00 | 0.00 | 75 | |
| 20260508152232 | 55 | 289 | 0.9 | 0.9 | 0.00 | 0.00 | 0.00 | 76 | |
| 20260508151728 | 55 | 293 | 0.0 | 0.0 | 0.00 | 0.00 | 0.00 | 76 | |
| 20260508151226 | 55 | 293 | 0.0 | 0.0 | 0.00 | 0.00 | 0.00 | 74 | |
| 20260508150722 | 55 | 294 | 0.0 | 0.0 | 0.00 | 0.00 | 0.00 | 74 | |
| 20260508150219 | 55 | 294 | 0.0 | 0.0 | 0.00 | 0.00 | 0.00 | 73 | |
| 20260508145715 | 56 | 294 | 0.0 | 0.0 | 0.00 | 0.00 | 0.00 | 72 | |
| 20260508145211 | 56 | 295 | 0.0 | 0.0 | 0.00 | 0.00 | 0.00 | 71 | |
| 20260508144709 | 56 | 296 | 0.0 | 0.0 | 0.00 | 0.00 | 0.00 | 70 | |
| 20260508144206 | 57 | 296 | 0.0 | 0.0 | 0.00 | 0.00 | 0.00 | 69 | |
| 20260508143704 | 57 | 296 | 0.0 | 0.0 | 0.00 | 0.00 | 0.00 | 69 | |
| 20260508143201 | 58 | 299 | 0.0 | 0.9 | 0.00 | 0.00 | 0.00 | 68 | |
| 20260508142656 | 58 | 326 | 0.0 | 0.0 | 0.00 | 0.00 | 0.00 | 68 | |
| 20260508142153 | 58 | 300 | 0.0 | 0.0 | 0.00 | 0.00 | 0.00 | 68 | |
| 20260508141650 | 58 | 295 | 0.0 | 0.9 | 0.00 | 0.00 | 0.00 | 68 | |
| 20260508141148 | 59 | 296 | 0.0 | 0.9 | 0.00 | 0.00 | 0.00 | 67 | |
| 20260508140645 | 59 | 327 | 0.0 | 0.9 | 0.00 | 0.00 | 0.00 | 67 | |
| 20260508140142 | 59 | 322 | 0.0 | 0.0 | 0.00 | 0.00 | 0.00 | 67 | |
| 20260508135637 | 60 | 345 | 0.0 | 2.6 | 0.00 | 0.00 | 0.00 | 66 | |
| 20260508135133 | 60 | 265 | 0.9 | 1.7 | 0.00 | 0.00 | 0.00 | 66 | |
| 20260508134630 | 60 | 24 | 0.0 | 0.0 | 0.00 | 0.00 | 0.00 | 66 | |
| 20260508134127 | 60 | 331 | 0.9 | 2.6 | 0.00 | 0.00 | 0.00 | 67 | |
| 20260508133624 | 60 | 2 | 0.0 | 0.9 | 0.00 | 0.00 | 0.00 | 67 | |
| 20260508133121 | 60 | 343 | 0.0 | 0.9 | 0.00 | 0.00 | 0.00 | 67 | |
| 20260508132619 | 61 | 260 | 0.0 | 1.7 | 0.00 | 0.00 | 0.00 | 67 | |
| 20260508132116 | 61 | 145 | 1.7 | 2.6 | 0.00 | 0.00 | 0.00 | 67 | |
| 20260508131611 | 61 | 245 | 0.9 | 1.7 | 0.00 | 0.00 | 0.00 | 67 | |
| 20260508131108 | 61 | 83 | 0.0 | 1.7 | 0.00 | 0.00 | 0.00 | 66 | |
| 20260508130605 | 61 | 170 | 0.9 | 1.7 | 0.00 | 0.00 | 0.00 | 66 | |
| 20260508125557 | 62 | 84 | 0.9 | 1.7 | 0.00 | 0.00 | 0.00 | 67 | |
| 20260508125055 | 62 | 82 | 0.0 | 2.6 | 0.00 | 0.00 | 0.00 | 68 | |
| 20260508124553 | 62 | 241 | 0.9 | 1.7 | 0.00 | 0.00 | 0.00 | 68 |